User: anonymous
Location: Bergen
(60.3910°N, 5.3250°E)
Time: 06:28:51
(UTC+02:00)
Language:

Cosmos 1943 - Orbit

View from above orbital plane
View from above orbital plane
View from above satellite
View from above satellite

Ground track
Ground track

The orbit data is extracted from the following two-line orbital elements,

1 19119U 88039A   14212.77803245 -.00000164  00000-0 -59925-4 0  2030
2 19119 071.0052 149.5290 0012802 226.6620 156.2491 14.14942105353364
Epoch (UTC): 31 July 2014 18:40:22
Eccentricity: 0.0012802
inclination: 71.0052°
perigee height: 833 km
apogee height: 852 km
right ascension of ascending node: 149.5290°
argument of perigee: 226.6620°
revolutions per day: 14.14942105
mean anomaly at epoch: 156.2491°
orbit number at epoch: 35336

The dashed part of the orbit path shows where the satellite is in the earth's shadow,  

DLR